This is the latest recevied weather packets stored in our database for station/object IT9CNT. If no packets are shown the sender has not sent any weather packets the latest 10 day(s).
| Time | Temp. | Humidity | Pressure | Rain* | Wind** | Luminosity | Snow |
|---|---|---|---|---|---|---|---|
| 1787670123 | 33.89° C | 56% | 1013.6 hPa | 0 mm | - | - | - |
| 1787670063 | 33.89° C | 56% | 1013.6 hPa | 0 mm | - | - | - |
| 1787670003 | 33.89° C | 56% | 1013.4 hPa | 0 mm | - | - | - |
| 1787669943 | 33.89° C | 59% | 1013.5 hPa | 0 mm | - | - | - |
| 1787669883 | 33.89° C | 59% | 1013.6 hPa | 0 mm | - | - | - |
| 1787669823 | 33.89° C | 59% | 1013.6 hPa | 0 mm | - | - | - |
| 1787669763 | 33.89° C | 58% | 1013.4 hPa | 0 mm | - | - | - |
| 1787669703 | 33.89° C | 57% | 1013.3 hPa | 0 mm | - | - | - |
| 1787669643 | 33.89° C | 57% | 1013.6 hPa | 0 mm | - | - | - |
| 1787669583 | 34.44° C | 56% | 1013.6 hPa | 0 mm | - | - | - |
| 1787669524 | 33.33° C | 57% | 1013.9 hPa | 0 mm | - | - | - |
| 1787669464 | 33.33° C | 57% | 1013.7 hPa | 0 mm | - | - | - |
| 1787669404 | 33.33° C | 57% | 1013.6 hPa | 0 mm | - | - | - |
| 1787669343 | 33.33° C | 57% | 1013.7 hPa | 0 mm | - | - | - |
| 1787669283 | 33.33° C | 61% | 1013.5 hPa | 0 mm | - | - | - |
| 1787669223 | 33.33° C | 61% | 1013.5 hPa | 0 mm | - | - | - |
| 1787669163 | 33.33° C | 61% | 1013.6 hPa | 0 mm | - | - | - |
| 1787669103 | 33.89° C | 59% | 1013.6 hPa | 0 mm | - | - | - |
| 1787669044 | 33.89° C | 59% | 1013.7 hPa | 0 mm | - | - | - |
| 1787668983 | 33.89° C | 60% | 1013.8 hPa | 0 mm | - | - | - |
| 1787668923 | 33.89° C | 60% | 1013.7 hPa | 0 mm | - | - | - |
| 1787668863 | 33.89° C | 60% | 1013.7 hPa | 0 mm | - | - | - |
| 1787668803 | 33.33° C | 60% | 1013.8 hPa | 0 mm | - | - | - |
| 1787668744 | 33.33° C | 60% | 1013.7 hPa | 0 mm | - | - | - |
| 1787668683 | 33.33° C | 60% | 1013.5 hPa | 0 mm | - | - | - |
* Rain latest hour (hover to see other rain measurements)
** Current wind speed in m/s (hover to see current wind gust speed)